Flag for Czech Republic Weather past 2 weeks in Prague, Czech Republic

Now
82 °F

Sunny.


Feels Like: 82 °F
Forecast: 69 / 84 °F
Wind: 12 mph from Southeast

Location: Prague Ruzyne Airport

Current Time: Aug 4, 2015 at 12:13:59 PM

Latest Report: Aug 4, 2015 at 11:30 AM


Visibility: 10 mi

Pressure: 29.98 "Hg

Humidity: 42%

Dew point: 57 °F

Location of PragueLocation

Historic Weather in Prague — Graph

°F

Prague temperature yesterday

Maximum temperature yesterday: 82 °F (at 3:00 PM)
Minimum temperature yesterday: 57 °F (at 6:00 AM)
Average temperature yesterday: 72 °F

Past Weeks' High & Low Weather Summary

 TemperatureHumidityPressure
High97 °F (Jul 22, 4:00 PM)100% (Jul 25, 7:30 AM)30.15 "Hg (Jul 25, 7:30 AM)
Low46 °F (Jul 31, 5:00 AM)23% (Jul 22, 4:30 PM)29.65 "Hg (Jul 27, 3:30 PM)
Average68 °F59%29.94 "Hg
* Reported Jul 20 11:00 AM — Aug 4 11:00 AM, Prague, Weather by CustomWeather, © 2015

Note: Actual official high and low records may vary slightly from our data, if they occured in-between our weather recording intervals... More about our weather records

Advertising

Prague weather history for previous 24 hours

 ConditionsComfort  
Time TempWeatherWind HumidityBarometerVisibility
11:00 AM
Tue, Aug 4
82 °FPassing clouds.12 mph45%29.98 "HgN/A
10:30 AM81 °FPassing clouds.10 mph51%30.01 "HgN/A
10:00 AM79 °FPassing clouds.9 mph54%30.01 "HgN/A
9:30 AM77 °FSunny.9 mph57%30.01 "Hg10 mi
9:00 AM75 °FSunny.7 mph61%30.01 "Hg10 mi
8:30 AM73 °FSunny.6 mph65%30.01 "Hg10 mi
8:00 AM72 °FSunny.5 mph69%30.04 "Hg10 mi
7:30 AM70 °FSunny.2 mph73%30.04 "Hg10 mi
7:00 AM68 °FSunny.2 mph78%30.04 "Hg10 mi
6:30 AM64 °FClear.3 mph83%30.04 "Hg10 mi
6:00 AM66 °FClear.2 mph78%30.01 "Hg10 mi
5:00 AM64 °FClear.5 mph78%30.04 "Hg10 mi
4:30 AM66 °FClear.5 mph73%30.04 "Hg10 mi
4:00 AM66 °FClear.5 mph78%30.04 "Hg10 mi
3:30 AM70 °FClear.6 mph64%30.04 "Hg10 mi
3:00 AM70 °FClear.7 mph64%30.04 "Hg10 mi
2:30 AM72 °FClear.7 mph61%30.04 "Hg10 mi
2:00 AM72 °FClear.7 mph61%30.04 "Hg10 mi
1:30 AM72 °FClear.7 mph57%30.04 "Hg10 mi
1:00 AM70 °FClear.6 mph64%30.07 "Hg10 mi
12:30 AM72 °FPassing clouds.3 mph57%30.07 "HgN/A
12:00 AM72 °FClear.3 mph57%30.07 "Hg10 mi
11:30 PM
Mon, Aug 3
75 °FClear.3 mph50%30.07 "Hg10 mi
11:00 PM73 °FClear.3 mph53%30.07 "Hg10 mi
10:30 PM75 °FClear.5 mph54%30.07 "Hg10 mi
10:00 PM73 °FClear.6 mph53%30.07 "Hg10 mi
9:30 PM75 °FSunny.6 mph50%30.07 "Hg10 mi
9:00 PM75 °FSunny.5 mph50%30.07 "Hg10 mi
8:30 PM75 °FSunny.6 mph54%30.07 "Hg10 mi
8:00 PM79 °FSunny.6 mph48%30.04 "Hg10 mi
7:30 PM81 °FSunny.7 mph45%30.04 "Hg10 mi
7:00 PM82 °FPassing clouds.8 mph42%30.07 "HgN/A
6:30 PM82 °FPassing clouds.5 mph42%30.07 "HgN/A
6:00 PM82 °FPassing clouds.5 mph40%30.07 "HgN/A
5:30 PM82 °FPassing clouds.6 mph42%30.07 "HgN/A
5:00 PM82 °FSunny.3 mph42%30.07 "Hg10 mi
4:30 PM82 °FSunny.2 mph40%30.09 "Hg10 mi
4:00 PM82 °FPassing clouds.9 mph40%30.09 "HgN/A
3:30 PM81 °FPassing clouds.8 mph42%30.09 "HgN/A
3:00 PM82 °FPassing clouds.7 mph40%30.09 "HgN/A
2:30 PM81 °FPassing clouds.8 mph42%30.09 "HgN/A
2:00 PM79 °FSunny.3 mph45%30.12 "Hg10 mi
1:30 PM79 °FPassing clouds.6 mph45%30.12 "HgN/A
1:00 PM79 °FSunny.6 mph45%30.12 "Hg10 mi
12:30 PM77 °FPassing clouds.5 mph47%30.12 "HgN/A
Weather by CustomWeather, © 2015

See weather overviewHow to use our weather pages